FENGMANIU-1 (FMN-1) (43192 NORAD) Tracking and Keplerian Element Data

This shows tracking and keplerian element data for the satellite.

Feedback or suggestion? Click here.




ElementValue
Catalog43192
NameFENGMANIU-1 (FMN-1)
Epoch Orbit12042
Epoch Day94.16368117
Epoch Year2020
RAAN224.0876
Inclination97.4305
Eccentricity0.0015627
Argument of Perigee1.0478
Mean Anonmoly123.5945
Mean Motion15.25324358
Decay Rate2.388E-05
L11 43192U 18015A 20094.16368117 .00002388 00000-0 97401-4 0 9998
L22 43192 97.4305 224.0876 0015627 1.0478 123.5945 15.25324358120425

Live tracking and technical data element details for FENGMANIU-1 (FMN-1) (NORAD 43192). FENGMANIU-1 (FMN-1) can be tracked NOW for your location showing map with azimuth and elevation plus other details from your city location.

Track the satellite on the map from your city or location and see movement details for azimuth, elevation, latitude, longitude, range, height, and movement on the map or in text.







IsCatalogInMostPopularTable: catalog: 43192, numindb: 492
Update: records affected: 1



GetName: 43192 FENGMANIU-1 (FMN-1)

Hit Count: updated at: Thu, 09 Apr 2020 16:55:45 GMT